Location: Puketoi
(40.5833°S, 176.0167°E)
Time: 14:11:23
(UTC+00:00)

Lacrosse 5 - Pass Details

Date: 08 February 2023
Orbit: 714 x 724 km, 57.0° (Epoch: 09 March)

Event Time Altitude Azimuth Distance (km) Brightness Sun altitude
Exits shadow 14:55:22 12° 44° (NE) 2,037 4.1 -25.1°
Maximum altitude 14:56:50 14° 63° (ENE) 1,950 4.2 -24.9°
Drops below altitude 10° 14:59:24 10° 93° (E) 2,215 4.9 -24.6°
Sets 15:02:54 0° 117° (ESE) 3,143 6.3 -24.1°
